2026-023C

Last updated on Sun Mar 08 2026 00:02:12 GMT+0000 (Coordinated Universal Time)

1 67676U 26023C 26066.61617069 .00017146 00000+0 72551-3 0 9992 2 67676 96.6390 139.8292 0020368 129.6229 230.6812 15.23050812 4701
UTC large
Height (km)
Speed (km/s)
/
Latitude / Longitude
Inclination (degrees)
Orbital Period (minutes)
Azimuth
Elevation
Range (km)
Doppler Factor

Next 0 passes for location: London (51.5072 / 0.1276)

Sorry there are no passes over London.